Stündliche Wetter Abaliget

Heute, 25 Februar, Donnerstag

Zeit Temperatur Niederschläge Wind Luftdruck Luftfeuchtigkeit
00:00 +10°C° 0 mm 1 m/S 759 mmHg 67%
01:00 +9°C° 0 mm 1 m/S 759 mmHg 68%
02:00 +9°C° 0 mm 1 m/S 759 mmHg 69%
03:00 +9°C° 0 mm 1 m/S 759 mmHg 70%
04:00 +9°C° 0 mm 1 m/S 758 mmHg 71%
05:00 +8°C° 0 mm 1 m/S 758 mmHg 71%
06:00 +8°C° 0 mm 1 m/S 758 mmHg 72%
07:00 +7°C° 0 mm 2 m/S 758 mmHg 73%
08:00 +9°C° 0 mm 2 m/S 758 mmHg 68%
09:00 +12°C° 0 mm 2 m/S 758 mmHg 63%
10:00 +13°C° 0 mm 2 m/S 758 mmHg 59%
11:00 +15°C° 0 mm 2 m/S 758 mmHg 56%
12:00 +16°C° 0 mm 2 m/S 758 mmHg 53%
13:00 +17°C° 0 mm 3 m/S 758 mmHg 49%
14:00 +17°C° 0 mm 2 m/S 757 mmHg 51%
15:00 +17°C° 0 mm 2 m/S 757 mmHg 53%
16:00 +17°C° 0 mm 2 m/S 756 mmHg 54%
17:00 +16°C° 0 mm 2 m/S 756 mmHg 59%
18:00 +14°C° 0 mm 2 m/S 756 mmHg 63%
19:00 +13°C° 0 mm 2 m/S 756 mmHg 67%
20:00 +12°C° 0 mm 2 m/S 756 mmHg 68%
21:00 +12°C° 0 mm 1 m/S 756 mmHg 70%
22:00 +11°C° 0 mm 1 m/S 756 mmHg 71%
23:00 +11°C° 0 mm 1 m/S 756 mmHg 73%

Morgen, 26 Februar, Freitag

Zeit Temperatur Niederschläge Wind Luftdruck Luftfeuchtigkeit
00:00 +10°C° 0 mm 1 m/S 756 mmHg 74%
01:00 +10°C° 0 mm 1 m/S 756 mmHg 75%
02:00 +10°C° 0 mm 1 m/S 755 mmHg 76%
03:00 +9°C° 0 mm 1 m/S 755 mmHg 77%
04:00 +9°C° 0 mm 1 m/S 754 mmHg 79%
05:00 +8°C° 0 mm 0 m/S 755 mmHg 80%
06:00 +8°C° 0 mm 0 m/S 755 mmHg 81%
07:00 +7°C° 0 mm 0 m/S 755 mmHg 82%
08:00 +9°C° 0 mm 0 m/S 755 mmHg 76%
09:00 +11°C° 0 mm 0 m/S 755 mmHg 70%
10:00 +13°C° 0 mm 0 m/S 755 mmHg 64%
11:00 +14°C° 0 mm 0 m/S 755 mmHg 61%
12:00 +15°C° 0 mm 0 m/S 754 mmHg 57%
13:00 +18°C° 0 mm 1 m/S 754 mmHg 53%
14:00 +18°C° 0 mm 1 m/S 754 mmHg 54%
15:00 +18°C° 0 mm 1 m/S 753 mmHg 54%
16:00 +18°C° 0 mm 1 m/S 753 mmHg 54%
17:00 +16°C° 0 mm 1 m/S 753 mmHg 60%
18:00 +14°C° 0 mm 1 m/S 753 mmHg 66%
19:00 +13°C° 0 mm 1 m/S 752 mmHg 72%
20:00 +12°C° 0 mm 1 m/S 752 mmHg 75%
21:00 +12°C° 0 mm 1 m/S 752 mmHg 78%
22:00 +11°C° 0 mm 1 m/S 753 mmHg 81%
23:00 +10°C° 0 mm 2 m/S 753 mmHg 83%

übermorgen, 27 Februar, Samstag

Zeit Temperatur Niederschläge Wind Luftdruck Luftfeuchtigkeit
00:00 +9°C° 0 mm 2 m/S 753 mmHg 84%
01:00 +9°C° 0 mm 2 m/S 753 mmHg 86%
02:00 +8°C° 0 mm 2 m/S 753 mmHg 86%
03:00 +8°C° 0 mm 2 m/S 752 mmHg 85%
04:00 +8°C° 0 mm 3 m/S 752 mmHg 84%
05:00 +8°C° 0 mm 3 m/S 753 mmHg 85%
06:00 +7°C° 0 mm 3 m/S 753 mmHg 85%
07:00 +7°C° 0 mm 3 m/S 753 mmHg 85%
08:00 +8°C° 0 mm 4 m/S 754 mmHg 79%
09:00 +9°C° 0 mm 5 m/S 754 mmHg 72%
10:00 +10°C° 0 mm 6 m/S 755 mmHg 65%
11:00 +10°C° 0 mm 6 m/S 755 mmHg 59%
12:00 +10°C° 0 mm 6 m/S 755 mmHg 52%
13:00 +11°C° 0 mm 6 m/S 755 mmHg 45%
14:00 +10°C° 0 mm 5 m/S 755 mmHg 47%
15:00 +10°C° 0 mm 5 m/S 755 mmHg 48%
16:00 +9°C° 0 mm 5 m/S 754 mmHg 49%
17:00 +8°C° 0 mm 4 m/S 755 mmHg 55%
18:00 +8°C° 0 mm 3 m/S 755 mmHg 61%
19:00 +7°C° 0 mm 2 m/S 756 mmHg 67%
20:00 +6°C° 0 mm 2 m/S 756 mmHg 69%
21:00 +6°C° 0 mm 2 m/S 756 mmHg 71%
22:00 +5°C° 0 mm 2 m/S 757 mmHg 73%
23:00 +5°C° 0 mm 2 m/S 757 mmHg 74%

28 Februar, Sonntag

Zeit Temperatur Niederschläge Wind Luftdruck Luftfeuchtigkeit
00:00 +4°C° 0 mm 2 m/S 757 mmHg 75%
01:00 +4°C° 0 mm 2 m/S 757 mmHg 75%
02:00 +3°C° 0 mm 2 m/S 757 mmHg 77%
03:00 +3°C° 0 mm 2 m/S 757 mmHg 79%
04:00 +2°C° 0 mm 2 m/S 757 mmHg 81%
05:00 +3°C° 0 mm 1 m/S 757 mmHg 81%
06:00 +3°C° 0 mm 1 m/S 758 mmHg 81%
07:00 +3°C° 0 mm 1 m/S 758 mmHg 81%
08:00 +5°C° 0 mm 1 m/S 758 mmHg 76%
09:00 +6°C° 0 mm 1 m/S 758 mmHg 70%
10:00 +7°C° 0 mm 1 m/S 758 mmHg 64%
11:00 +8°C° 0 mm 1 m/S 758 mmHg 61%
12:00 +8°C° 0 mm 1 m/S 758 mmHg 58%
13:00 +9°C° 0 mm 1 m/S 758 mmHg 55%
14:00 +9°C° 0 mm 1 m/S 757 mmHg 55%
15:00 +9°C° 0 mm 1 m/S 757 mmHg 55%
16:00 +9°C° 0 mm 1 m/S 757 mmHg 54%
17:00 +8°C° 0 mm 1 m/S 757 mmHg 59%
18:00 +7°C° 0 mm 1 m/S 757 mmHg 64%
19:00 +6°C° 0 mm 1 m/S 757 mmHg 68%
20:00 +6°C° 0 mm 1 m/S 757 mmHg 69%
21:00 +5°C° 0 mm 1 m/S 757 mmHg 71%
22:00 +5°C° 0 mm 1 m/S 758 mmHg 72%
23:00 +5°C° 0 mm 1 m/S 758 mmHg 72%

1 März, Montag

Zeit Temperatur Niederschläge Wind Luftdruck Luftfeuchtigkeit
00:00 +5°C° 0 mm 1 m/S 758 mmHg 72%
01:00 +5°C° 0 mm 1 m/S 758 mmHg 73%
02:00 +4°C° 0 mm 1 m/S 758 mmHg 74%
03:00 +4°C° 0 mm 1 m/S 758 mmHg 76%
04:00 +4°C° 0 mm 1 m/S 758 mmHg 77%
05:00 +4°C° 0 mm 1 m/S 758 mmHg 78%
06:00 +4°C° 0 mm 1 m/S 759 mmHg 79%
07:00 +3°C° 0 mm 2 m/S 759 mmHg 80%
08:00 +4°C° 0 mm 2 m/S 759 mmHg 75%
09:00 +5°C° 0 mm 2 m/S 759 mmHg 70%
10:00 +5°C° 0 mm 3 m/S 760 mmHg 65%
11:00 +6°C° 0 mm 2 m/S 760 mmHg 62%
12:00 +7°C° 0 mm 2 m/S 760 mmHg 58%
13:00 +8°C° 0 mm 2 m/S 760 mmHg 54%
14:00 +8°C° 0 mm 2 m/S 760 mmHg 53%
15:00 +8°C° 0 mm 2 m/S 760 mmHg 52%
16:00 +8°C° 0 mm 2 m/S 760 mmHg 51%
17:00 +7°C° 0 mm 2 m/S 760 mmHg 55%
18:00 +7°C° 0 mm 1 m/S 760 mmHg 59%
19:00 +6°C° 0 mm 1 m/S 760 mmHg 64%
20:00 +5°C° 0 mm 1 m/S 760 mmHg 66%
21:00 +5°C° 0 mm 1 m/S 761 mmHg 69%
22:00 +4°C° 0 mm 1 m/S 761 mmHg 71%
23:00 +4°C° 0 mm 1 m/S 761 mmHg 73%

2 März, Dienstag

Zeit Temperatur Niederschläge Wind Luftdruck Luftfeuchtigkeit
00:00 +4°C° 0 mm 1 m/S 761 mmHg 74%
01:00 +3°C° 0 mm 1 m/S 761 mmHg 76%
02:00 +3°C° 0 mm 1 m/S 761 mmHg 78%
03:00 +2°C° 0 mm 1 m/S 761 mmHg 80%
04:00 +2°C° 0 mm 1 m/S 761 mmHg 81%
05:00 +2°C° 0 mm 1 m/S 761 mmHg 83%
06:00 +2°C° 0 mm 1 m/S 762 mmHg 84%
07:00 +1°C° 0 mm 1 m/S 762 mmHg 85%
08:00 +2°C° 0 mm 2 m/S 762 mmHg 78%
09:00 +4°C° 0 mm 2 m/S 762 mmHg 70%
10:00 +5°C° 0 mm 2 m/S 763 mmHg 63%
11:00 +6°C° 0 mm 2 m/S 762 mmHg 58%
12:00 +7°C° 0 mm 2 m/S 762 mmHg 53%
13:00 +8°C° 0 mm 2 m/S 762 mmHg 49%
14:00 +8°C° 0 mm 2 m/S 762 mmHg 48%
15:00 +8°C° 0 mm 2 m/S 761 mmHg 48%
16:00 +9°C° 0 mm 2 m/S 761 mmHg 48%
17:00 +7°C° 0 mm 2 m/S 761 mmHg 53%
18:00 +7°C° 0 mm 1 m/S 761 mmHg 58%
19:00 +6°C° 0 mm 1 m/S 761 mmHg 63%
20:00 +6°C° 0 mm 1 m/S 761 mmHg 64%
21:00 +5°C° 0 mm 1 m/S 762 mmHg 66%
22:00 +5°C° 0 mm 1 m/S 762 mmHg 67%
23:00 +5°C° 0 mm 1 m/S 761 mmHg 68%
Mehr zeigen

Wir brauchen deine Erlaubnis

Meteoprog und unser Service Anbieter werden persönliche Daten aufbewahren, so wie Cookies, Geräte Bezeichnung oder ähnliche Technologien von deinem Gerät und Prozess, so wie Persönliche Daten Inhalte und Werbungen, genauso wie social Media und den Verkehr zu analysieren.

  • Aufbewahrung und/oder Zugang zu deiner Geräte Informationen.

    Cookies, Geräte Bezeichnung oder andere Informationen, können aufbewahrt oder Zugang zu deinem Gerät erhalten, für den Grund, der oben angegeben wird.

  • Personalisierte Werbung und Inhalte, Messungen, Einblick in das Publikum und Produkt Entwicklung.

    Werbungen und Inhalte können personalisiert werden, basierend auf ein Profil. Mehr Daten können besser personalisierte Werbungen und Inhalte hinzufügen. Werbung und Inhalte können gezeigt und gemessen werden. Einblicke über das Publikum, welche die Werbung gesehen haben und den Inhalt, können abgeleitet werden. So wie Daten können genutzt werden, um es zu verbessern oder die Benutzer Erfahrung zu verbessern das System und die Software.

Wenn du “Ich stimme zu” klickst, erlaubst du uns, die Cookies zu benutzen die Geräte Bezeichnung, den Web oder ähnliche Technologien zu benutzen. Deine Settings, können in deinem Gerät bei deinem Browser geändert werden.

Für den bestimmten Zweck, berechtigten Interessen beruhen darauf, mehr als auf den Inhalt. Du kannst mehr darüber in unseren Privaten und Cookie Politik lesen.